Regional Weather Roundup
Issued by NWS Kansas City/Pleasant Hill, MO

Home | Current Version | Previous Version | Text Only | Print | Product List | Glossary On
Versions: 1 2 3 4 5 6 7 8 9 10 11 12 13 14 15 16 17 18 19 20 21 22 23 24 25 26 27 28 29 30 31 32 33 34 35 36 37 38 39 40 41 42 43 44 45 46 47 48 49 50
000
ASUS43 KEAX 240010
RWREAX

WEATHER ROUNDUP FOR EASTERN KANSAS AND NORTHWEST MISSOURI
NATIONAL WEATHER SERVICE KANSAS CITY/PLEASANT HILL MO
700 PM CDT SAT JUL 23 2016

KSZ040-057-103>105-MOZ028-029-037-043-240100-
...KANSAS CITY METROPOLITAN AREA...

CITY           SKY/WX    TMP DP  RH WIND       PRES   REMARKS
K.C. INTL      CLOUDY    87  78  74 S7        29.86F HX 100
6HR MIN TEMP:  87; 6HR MAX TEMP:  92;

K.C. DOWNTOWN  CLOUDY    92  71  50 S9        29.84F HX  98
6HR MIN TEMP:  91; 6HR MAX TEMP:  96;

LEES SUMMIT    SUNNY     93  73  52 SW6       29.87F HX 102
6HR MIN TEMP:  93; 6HR MAX TEMP:  97;

OLATHE - IXD   CLOUDY    91  75  59 S6        29.87F HX 101
6HR MIN TEMP:  90; 6HR MAX TEMP:  94;

OLATHE - OJC   CLOUDY    89  72  56 S3        29.87F HX  96
6HR MIN TEMP:  88; 6HR MAX TEMP:  92;

LAWRENCE       CLOUDY    92  76  59 S9        29.85F HX 104

$$

MOZ001>008-011>017-020>025-030>033-038>040-044>046-053-054-240100-
...NORTHERN AND CENTRAL MISSOURI...

CITY           SKY/WX    TMP DP  RH WIND       PRES   REMARKS
ST. JOSEPH     MOSUNNY   88  73  61 S13G21    29.82F HX  95
6HR MIN TEMP:  88; 6HR MAX TEMP:  95;

MOSBY          CLOUDY    90  75  62 S5        29.85F HX 100
WHITEMAN AFB   SUNNY     92  76  58 S8        29.87S HX 104
6HR MIN TEMP:  92; 6HR MAX TEMP:  96;

CLINTON        SUNNY     93  77  59 S3        29.88S HX 107
SEDALIA        SUNNY     93  75  55 S7        29.89F HX 104
6HR MIN TEMP:  93; 6HR MAX TEMP:  97;

WARSAW         NOT AVBL
CHILLICOTHE      N/A     90  78  68 S6        29.86F HX 104
6HR MIN TEMP:  90; 6HR MAX TEMP:  95;

KIRKSVILLE     CLOUDY    89  77  67 S5        29.88F HX 101
6HR MIN TEMP:  89; 6HR MAX TEMP:  96;


$$

MOZ041-047>049-056>058-063>065-088>090-097-240100-
...EASTERN AND SOUTHERN MISSOURI...

CITY           SKY/WX    TMP DP  RH WIND       PRES   REMARKS
ST. LOUIS INTL MOSUNNY   93  74  53 SE9       29.90S HX 103
6HR MIN TEMP:  93; 6HR MAX TEMP:  96;

SPIRIT OF STL  SUNNY     92  75  57 SE5       29.88S HX 103
COLUMBIA       SUNNY     92  77  61 S3        29.89S HX 105
JEFFERSON CITY SUNNY     94  73  50 S6        29.86F HX 103
ROLLA          SUNNY     92  75  57 SE5       29.91R HX 103
OSAGE BEACH    SUNNY     93  78  61 CALM      29.90S HX 108
SPRINGFIELD    SUNNY     95  66  38 SW5       29.91S HX  98
BRANSON        MOSUNNY   93  73  52 CALM      29.94R HX 102
JOPLIN         MOSUNNY   93  73  52 S8        29.89S HX 102
WEST PLAINS    CLOUDY    91  70  49 SE5       29.95S HX  96

$$

IAZ060-094-KSZ022-034>040-054-083-096-NEZ052-066-093-240100-
...KANSAS...SOUTHEAST NEBRASKA AND IOWA...

CITY           SKY/WX    TMP DP  RH WIND       PRES   REMARKS
TOPEKA         PTSUNNY   90  75  61 SE7       29.83F HX 100
6HR MIN TEMP:  89; 6HR MAX TEMP:  97;

MANHATTAN      SUNNY     94  71  47 S13       29.80F HX 101
EMPORIA        CLOUDY    92  72  51 SE13      29.84F HX  99
CHANUTE        SUNNY     94  71  47 S9        29.86S HX 101
WICHITA        PTSUNNY   99  63  30 S12       29.80F HX 101
OMAHA          MOSUNNY   92  74  55 S16       29.76F HX 101
LINCOLN        SUNNY     93  74  53 S15G24    29.76F HX 103
FALLS CITY     CLOUDY    87  77  72 SE8       29.79F HX  99
LAMONI         CLOUDY    86  77  74 S7        29.85F HX  97
DES MOINES     MOSUNNY   90  77  65 S10       29.81S HX 103

$$




USA.gov is the U.S. government's official web portal to all federal, state and local government web resources and services.